{"data":{"norad_id":63085,"epoch":"2026-09-21T14:23:51.767808Z","epoch_age_seconds":67242,"freshness":"FRESH","line1":"1 63085U 25037J   26264.59990472  .00012584  00000+0  43030-3 0  9996","line2":"2 63085  70.0007 218.2584 0003318 268.5714  91.5081 15.30415525 87950","mean_motion":15.30415525,"eccentricity":0.0003318,"inclination_deg":70.0007,"raan_deg":218.2584,"arg_perigee_deg":268.5714,"mean_anomaly_deg":91.5081,"bstar":0.0004303,"rev_number":8795,"period_min":94.092093060805,"perigee_km":472.29789741809,"apogee_km":476.8453548624,"semimajor_km":6852.7086261402,"source":"CELESTRAK","updated_at":"2026-09-22T09:00:49.758826Z"}}